Flag for Taiwan Weather past 2 weeks in Kaohsiung, Taiwan

Now
90 °F

Broken clouds.


Feels Like: 105 °F
Forecast: 81 / 93 °F
Wind: 3 mph from North

Location: Kaohsiung International Airport

Current Time: Jul 1, 2015 at 8:21:33 AM

Latest Report: Jul 1, 2015 at 8:00 AM


Visibility: N/A

Pressure: 29.71 "Hg

Humidity: 71%

Dew point: 79 °F

Location of KaohsiungLocation

Historic Weather in Kaohsiung — Graph

°F

Kaohsiung temperature yesterday

Maximum temperature yesterday: 93 °F (at 2:00 PM)
Minimum temperature yesterday: 82 °F (at 3:00 AM)
Average temperature yesterday: 88 °F

Past Weeks' High & Low Weather Summary

 TemperatureHumidityPressure
High93 °F (Jun 18, 11:30 AM)94% (Jun 23, 2:30 PM)29.89 "Hg (Jun 23, 2:30 PM)
Low81 °F (Jun 19, 4:00 AM)56% (Jun 18, 11:30 AM)29.65 "Hg (Jun 17, 5:03 PM)
Average88 °F74%29.77 "Hg
* Reported Jun 16 7:00 AM — Jul 1 7:00 AM, Kaohsiung, Weather by CustomWeather, © 2015

Note: Actual official high and low records may vary slightly from our data, if they occured in-between our weather recording intervals... More about our weather records

Advertising

Kaohsiung weather history for previous 24 hours

 ConditionsComfort  
Time TempWeatherWind HumidityBarometerVisibility
7:00 AM
Wed, Jul 1
86 °FPassing clouds.5 mph75%29.71 "HgN/A
6:30 AM84 °FScattered clouds.2 mph84%29.71 "HgN/A
6:00 AM82 °FScattered clouds.5 mph84%29.71 "HgN/A
5:00 AM82 °FPassing clouds.6 mph84%29.71 "HgN/A
4:00 AM84 °FPassing clouds.6 mph84%29.68 "HgN/A
3:00 AM86 °FPassing clouds.8 mph79%29.71 "HgN/A
2:00 AM86 °FPassing clouds.9 mph79%29.71 "HgN/A
1:00 AM86 °FPassing clouds.8 mph79%29.71 "HgN/A
12:00 AM86 °FPassing clouds.6 mph79%29.74 "HgN/A
11:00 PM
Tue, Jun 30
86 °FPassing clouds.6 mph79%29.74 "HgN/A
10:30 PM86 °FPassing clouds.6 mph79%29.71 "HgN/A
10:00 PM86 °FPassing clouds.3 mph79%29.71 "HgN/A
9:30 PM86 °FPassing clouds.3 mph79%29.71 "HgN/A
9:00 PM86 °FPassing clouds.6 mph79%29.71 "HgN/A
8:30 PM86 °FPassing clouds.6 mph79%29.71 "HgN/A
8:00 PM86 °FPassing clouds.7 mph75%29.71 "HgN/A
7:30 PM86 °FPassing clouds.9 mph79%29.71 "HgN/A
7:00 PM86 °FPassing clouds.12 mph75%29.71 "HgN/A
6:30 PM88 °FScattered clouds.9 mph75%29.71 "HgN/A
6:00 PM88 °FScattered clouds.9 mph75%29.68 "HgN/A
5:50 PM88 °FScattered clouds.10 mph75%29.68 "HgN/A
5:30 PM88 °FScattered clouds.12 mph75%29.68 "HgN/A
5:00 PM90 °FScattered clouds.16 mph71%29.68 "HgN/A
4:30 PM90 °FScattered clouds.13 mph71%29.68 "HgN/A
4:00 PM90 °FPartly sunny.14 mph71%29.71 "HgN/A
3:30 PM90 °FPartly sunny.14 mph71%29.71 "HgN/A
3:00 PM91 °FBroken clouds.15 mph67%29.71 "HgN/A
2:30 PM91 °FBroken clouds.15 mph71%29.71 "HgN/A
2:00 PM93 °FPartly sunny.13 mph63%29.71 "HgN/A
1:30 PM91 °FScattered clouds.14 mph71%29.74 "HgN/A
1:00 PM91 °FScattered clouds.13 mph67%29.74 "HgN/A
12:30 PM91 °FScattered clouds.14 mph71%29.77 "HgN/A
12:00 PM91 °FScattered clouds.12 mph71%29.77 "HgN/A
11:30 AM91 °FScattered clouds.13 mph71%29.77 "HgN/A
11:00 AM91 °FScattered clouds.10 mph67%29.77 "HgN/A
10:30 AM91 °FScattered clouds.8 mph67%29.77 "HgN/A
10:00 AM91 °FScattered clouds.9 mph67%29.77 "HgN/A
9:30 AM90 °FScattered clouds.9 mph67%29.77 "HgN/A
9:00 AM91 °FScattered clouds.2 mph67%29.77 "HgN/A
8:30 AM90 °FScattered clouds.3 mph67%29.77 "HgN/A
8:00 AM88 °FScattered clouds.5 mph70%29.77 "HgN/A
Weather by CustomWeather, © 2015

See weather overviewHow to use our weather pages